Location: Baj?n?
(27.7374°N, 85.6891°E)
Time: 07:29:30
(UTC+00:00)

Daily predictions for brighter satellites

Satellite Brightness Start Highest point End
(mag) Time Altitude Azimuth Time Altitude Azimuth Time Altitude Azimuth
Cosmos 1455 3.8 12:04:05 10° ESE 12:06:11 14° E 12:08:18 10° NE
Cosmos 2228 4.1 12:04:21 10° SSW 12:08:25 48° W 12:12:32 10° N
Delta 142 3.8 12:05:18 10° W 12:09:45 82° N 12:15:10 11° E
Cosmos 1656 3.7 12:06:28 10° SSW 12:11:58 86° ESE 12:17:34 10° NNE
Cosmos 1939 Rocket 3.5 12:08:35 10° SE 12:12:10 32° ENE 12:15:42 10° NNE
Cosmos 1758 Rocket 4.1 12:09:11 10° NNW 12:13:29 63° W 12:17:45 10° S
Helios 1A Rocket 3.9 12:14:59 10° SE 12:18:21 25° ENE 12:21:43 10° NNE
H-2A R/B 3.7 12:16:45 10° E 12:19:36 15° ENE 12:22:28 10° NE
OAO 2 Rocket 3.9 12:15:43 10° W 12:20:32 46° NNW 12:24:45 13° ENE
Okean-O 3.6 12:17:11 10° SE 12:20:46 25° ENE 12:24:21 10° NNE
Atlas Centaur 2 3.2 12:14:06 10° WSW 12:22:25 89° NNW 12:29:47 15° ENE
NOSS 3-3 (A) 3.7 12:17:35 10° SSW 12:23:06 76° ESE 12:29:07 10° NNE
NOSS 3-3 (C) 3.7 12:17:38 10° SSW 12:23:13 76° ESE 12:29:16 10° NNE
Meteor 2-16 Rocket 4.4 12:17:10 10° N 12:23:14 69° E 12:29:17 10° SSE
Cosmos 2227 Rocket 3.3 12:24:19 10° NNE 12:28:43 23° ENE 12:31:56 14° ESE
Cosmos 1244 Rocket 4.5 12:22:58 10° N 12:29:08 64° E 12:35:21 10° SSE
CZ-4B R/B 4.3 12:28:35 10° NNW 12:30:38 16° WNW 12:32:39 10° WSW
Cosmos 1400 Rocket 3.7 12:28:24 10° SSW 12:32:26 54° W 12:36:28 10° N
SKYMED 2 4.2 12:28:54 10° N 12:33:10 60° WNW 12:37:25 10° SSW
Elektron 3 4.0 12:29:35 10° NNW 12:33:37 56° NE 12:36:02 14° SE
Geosat 3.9 12:29:12 10° NNE 12:34:13 71° ESE 12:39:13 10° SSW
Cosmos 1697 Rocket 2.6 12:30:05 10° S 12:35:37 69° ESE 12:41:12 10° NNE
CZ-4 R/B 2.0 12:32:16 10° SE 12:35:45 31° ENE 12:39:11 10° NNE
Cosmos 220 Rocket 3.9 12:32:49 10° S 12:37:06 79° ESE 12:41:29 10° NNE
IRS-1C Rocket 4.0 12:34:13 10° SSE 12:39:27 73° ENE 12:44:42 10° N
Aureole 3 Rocket 4.2 12:43:18 10° SSW 12:46:28 38° WNW 12:50:29 10° N
Cosmos 2058 3.7 12:42:57 10° NNE 12:45:56 28° ENE 12:45:56 28° ENE
OAO 3 Rocket 3.3 12:46:20 10° WNW 12:51:02 56° NNE 12:52:53 33° E
Cosmos 1892 2.8 12:47:44 10° N 12:51:31 51° E 12:55:17 10° SSE
Cosmos 2315 Rocket 4.4 12:49:12 10° SSE 12:54:47 36° E 13:00:20 10° NNE
S3M 3.8 12:49:37 10° S 12:55:42 83° E 13:01:50 10° N
CZ-2D R/B 3.2 12:53:00 10° S 12:56:48 85° WSW 13:00:37 10° NNW
Cosmos 1980 Rocket 2.3 12:52:44 10° S 12:58:12 53° ESE 13:01:42 22° NE
CRYOSAT 2 4.3 12:54:57 10° NNE 12:59:44 59° E 13:04:31 10° S
Hubble Space Telescope 3.4 12:59:06 10° WSW 13:01:32 15° SSW 13:03:59 10° S
Cosmos 1315 Rocket 2.8 12:59:27 10° S 13:03:21 76° W 13:07:19 10° N
CSL-04 Debris 4.4 13:00:03 12° SE 13:04:48 44° ENE 13:09:57 10° N
Cosmos 2297 Rocket 2.1 13:03:08 10° NNW 13:08:47 69° ENE 13:13:52 13° SSE
Cosmos 1346 Rocket 3.9 13:04:58 10° N 13:07:08 30° NNE 13:07:08 30° NNE
Cosmos 968 Rocket 3.5 13:04:44 10° N 13:09:48 53° ENE 13:10:54 44° ESE
In-Cosmos 22 Rocket 4.3 13:05:53 10° NNW 13:11:16 72° W 13:16:46 10° S
Cosmos 2360 4.4 13:07:56 10° SSW 13:13:38 70° WNW 13:19:21 10° NNE
SL-08 ROCKET BODY 4.4 13:09:10 10° N 13:15:19 90° W 13:21:31 10° S
MOS 1 Rocket 3.6 13:11:12 10° N 13:16:01 74° WNW 13:21:08 10° SSW
Milstar 3 2.7 13:15:43 10° W 13:22:33 86° N 13:24:44 47° E
CZ-2C R/B 3.3 13:18:34 10° S 13:24:23 82° WSW 13:30:09 10° NNW
YAOGAN 1 2.9 13:21:58 10° S 13:26:14 64° W 13:30:31 10° NNW
Cosmos 2278 3.8 13:21:32 10° SSW 13:27:12 76° WNW 13:30:43 24° NNE
ASC 2 Rocket 4.1 13:24:12 10° W 13:28:30 45° S 13:29:12 42° SSE
Cosmos 1486 Rocket 3.9 13:24:00 10° NNW 13:29:20 89° WSW 13:31:10 42° SSE
ASTRO E2 3.9 13:29:15 10° WNW 13:32:00 36° NW 13:32:00 36° NW
GPS 2-04 Rocket1 4.1 13:32:37 10° W 13:35:40 34° NW 13:35:40 34° NW
Cosmos 2219 3.8 13:33:08 10° NNW 13:38:44 56° WSW 13:44:19 10° S
Delta 2 Rocket 4.0 13:34:35 10° WNW 13:39:41 76° NNW 13:39:41 76° NNW
Delta 198 4.3 13:35:59 10° W 13:41:52 68° S 13:42:08 67° SSE
Intelsat 5-2 Rocket 4.4 13:35:51 10° WSW 13:42:36 38° SSW 13:42:36 38° SSW
CZ-3B R/B 4.2 13:37:34 10° WSW 13:42:25 37° SW 13:42:25 37° SW
Delta 2 Rocket 4.5 13:48:56 10° WSW 13:57:41 65° SSE 13:57:50 65° SSE
H-2A R/B 2.8 13:56:56 40° SSW 13:58:28 53° W 14:03:45 10° NNW
Cosmos 2227 Rocket 3.6 14:07:39 10° NW 14:12:43 35° WSW 14:13:55 32° SW
Atlas Centaur 2 3.1 14:04:09 10° W 14:12:22 73° NNW 14:12:22 73° NNW
ATLAS 3B R/B 3.9 21:23:36 34° E 21:23:36 34° E 21:28:06 10° NE
CZ-3 R/B 3.9 21:37:01 49° WSW 21:48:20 84° SSE 21:59:07 10° E
EPKM 3.6 22:22:09 63° SW 22:23:09 77° S 22:43:17 10° E
Cosmos 1833 Rocket 3.7 22:28:31 31° N 22:28:31 31° N 22:31:37 10° N
Cosmos 2279 Rocket 3.8 22:28:15 43° NNW 22:30:20 69° W 22:36:27 10° S
H-2A R/B 2.1 22:29:32 10° SSE 22:33:44 78° SSE 22:33:44 78° SSE
Delta 128 4.5 22:35:33 37° S 22:35:33 37° S 22:39:09 10° SE
OAO 1 4.3 22:34:30 72° WSW 22:35:05 90° NW 22:40:35 10° ENE
GOES 2 Rocket 3.5 22:34:46 67° WSW 22:35:35 85° S 22:42:25 10° E
Cosmos 1908 3.9 22:39:58 45° SSE 22:39:58 45° SSE 22:42:44 10° S
CZ-2C R/B 2.8 22:41:02 21° SSE 22:41:02 21° SSE 22:42:23 10° SE
Meteor 1-24 Rocket 4.0 22:38:36 10° S 22:44:03 68° E 22:49:44 10° NNE
ALOS 2.4 22:39:47 10° NNE 22:44:26 74° E 22:49:05 10° S
Cosmos 2082 Rocket 2.1 22:46:10 34° SW 22:48:32 63° WNW 22:54:06 10° NNE
SL-14 R/B 3.1 22:46:09 22° S 22:48:39 86° W 22:52:39 10° N
CZ-4B R/B 3.1 22:48:20 10° SE 22:51:30 34° ENE 22:54:40 10° N
Cosmos 2084 3.5 22:52:17 57° NW 22:52:17 57° NW 22:56:23 10° NNE
Cosmos 1656 3.6 22:50:34 18° NNW 22:54:56 75° WSW 23:00:33 10° SSE
Meteor 1-16 Rocket 4.4 22:58:20 33° NW 22:59:59 42° W 23:05:00 10° SSW
deb Chang Zheng 4 3.4 22:55:57 10° N 23:00:12 80° WNW 23:04:28 10° SSW
Gblst 52 Del rocket 4.1 22:56:43 23° SW 23:00:14 87° NW 23:06:11 10° NE
Cosmos 2251 Rocket 3.6 22:58:41 10° SSW 23:03:54 54° WNW 23:09:08 10° N
Cosmos 1892 Rocket 3.5 23:00:39 10° S 23:04:58 84° E 23:09:19 10° N
SJ-12 4.3 23:04:53 10° NNE 23:08:57 64° E 23:12:58 10° S
SL-19 R/B 3.4 23:06:44 10° N 23:09:35 80° WNW 23:12:40 10° SSW
ATLAS 3B R/B 3.4 23:10:57 26° W 23:12:45 29° NW 23:18:23 10° N
Meteor 2-5 Rocket 4.0 23:09:22 10° SSW 23:14:41 43° W 23:20:08 10° N
Cosmos 1484 Rocket 3.1 23:12:30 10° N 23:16:03 37° WNW 23:19:30 10° SW
Cosmos 1697 Rocket 2.7 23:14:40 10° NNW 23:20:21 88° WSW 23:26:00 10° SSE
ADEOS Rocket 3.4 23:16:30 10° SSW 23:21:24 32° W 23:26:16 10° NW
DELTA 2 R/B (1) 3.6 23:22:04 19° WNW 23:26:11 89° SSW 23:31:48 10° ESE
Cosmos 1092 Rocket 4.1 23:21:20 10° SSW 23:27:15 49° W 23:33:13 10° N
Meteor PRIRODA 3.7 23:24:03 10° NNE 23:27:43 82° E 23:31:23 10° S
FENGYUN 3A 4.2 23:25:01 10° N 23:29:56 36° WNW 23:34:50 10° SW
ATLAS CENTAUR Rocket 3.5 23:32:19 13° WSW 23:34:39 18° SSW 23:37:26 10° SSE
Meteor 1-31 Rocket 3.8 23:37:23 10° NNW 23:40:40 26° WNW 23:43:57 10° SW
Geosat 4.0 23:36:01 10° SSE 23:40:58 66° WSW 23:45:58 10° NNW
Mugunghwa Rocket 4.4 23:35:24 14° W 23:42:16 78° S 23:49:17 10° ESE
Cosmos 1980 Rocket 2.5 23:37:27 10° NNW 23:43:02 72° ENE 23:48:37 10° SSE
CZ-4B R/B 3.2 23:39:20 10° N 23:43:22 51° WNW 23:47:34 10° SSW
Cosmos 407 Rocket 3.4 23:41:53 10° SSW 23:46:57 69° WNW 23:52:04 10° N
SAR-Lupe-4 3.8 23:45:53 10° S 23:49:18 45° W 23:52:45 10° NNW
Cosmos 1140 Rocket 3.4 23:45:08 10° SSW 23:50:16 84° WNW 23:55:24 10° NNE
ERS-2 3.5 23:47:42 10° SW 23:50:23 19° W 23:53:05 10° NW
ATLAS CENTAUR R/B 1.2 23:48:49 10° SW 23:52:51 61° WNW 23:56:40 10° NNE
Envisat 4.1 23:48:17 10° NNE 23:53:13 50° E 23:58:07 10° S
Cosmos 1726 Rocket 4.1 23:49:34 10° NNW 23:53:43 38° W 23:57:50 10° SSW
